Location: Lisboa
(38.7223°N, 9.1393°W)
Time: 23:29:08
(UTC+01:00)

TIGRISAT - Visible Passes

Search period start: 29 April 2025 00:00
Search period end: 09 May 2025 00:00
Orbit: 585 x 656 km, 97.7° (Epoch: 29 April)

Date Brightness Start Highest point End Pass type
(mag) Time Alt. Az. Time Alt. Az. Time Alt. Az.
29 Apr ? 05:10:53 10° S 05:14:58 69° W 05:19:12 10° NNW visible
30 Apr ? 03:54:14 10° ESE 03:56:41 15° ENE 03:59:10 10° NNE visible
30 Apr ? 05:28:29 10° S 05:32:26 42° W 05:36:29 10° NNW visible
01 May ? 04:10:38 10° ESE 04:13:57 23° ENE 04:17:20 10° NNE visible
01 May ? 05:46:26 10° SSW 05:49:57 26° W 05:53:34 10° NW visible
02 May ? 04:27:26 10° SE 04:31:15 36° ENE 04:35:10 10° N visible
02 May ? 06:04:46 10° SW 06:07:31 17° W 06:10:19 10° NW visible
03 May ? 04:44:30 10° SSE 04:48:36 57° ENE 04:52:48 10° N visible
04 May ? 05:01:47 10° SSE 05:05:58 88° WSW 05:10:17 10° NNW visible
05 May ? 03:45:56 10° E 03:47:48 13° ENE 03:49:40 10° NE visible
05 May ? 05:19:18 10° S 05:23:24 54° W 05:27:38 10° NNW visible
06 May ? 04:01:59 10° ESE 04:05:00 19° ENE 04:08:04 10° NNE visible
06 May ? 05:37:03 10° SSW 05:40:52 33° W 05:44:47 10° NNW visible
07 May ? 04:18:35 10° SE 04:22:15 29° ENE 04:26:00 10° N visible
07 May ? 05:55:07 10° SW 05:58:22 22° W 06:01:42 10° NW visible
08 May ? 04:35:30 10° SE 04:39:32 45° ENE 04:43:41 10° N visible
